Time,TemperatureF,DewpointF,PressureIn,WindDirection,WindDirectionDegrees,WindSpeedMPH,WindSpeedGustMPH,Humidity,HourlyPrecipIn,Conditions,Clouds,dailyrainin,SoftwareType,DateUTC
2013-01-23 00:05:00,37.0,24.8,30.05,ENE,75,0.0,0.0,61,0.00,,SKC,0.00,VWS V13.01,2013-01-23 08:05:00,
2013-01-23 00:11:00,36.9,24.6,30.05,ENE,75,0.0,0.0,61,0.00,,SKC,0.00,VWS V13.01,2013-01-23 08:11:00,
2013-01-23 00:17:00,36.9,25.5,30.05,ENE,75,0.0,0.0,63,0.00,,SKC,0.00,VWS V13.01,2013-01-23 08:17:00,
2013-01-23 00:23:00,36.9,25.5,30.05,ENE,75,0.0,0.0,63,0.00,,SKC,0.00,VWS V13.01,2013-01-23 08:23:00,
2013-01-23 00:29:00,36.7,24.5,30.05,ENE,75,0.0,0.0,61,0.00,,SKC,0.00,VWS V13.01,2013-01-23 08:29:00,
2013-01-23 00:35:00,36.5,24.3,30.05,ENE,75,0.0,0.0,61,0.00,,SKC,0.00,VWS V13.01,2013-01-23 08:35:00,
2013-01-23 00:42:00,36.5,25.1,30.05,ENE,75,0.0,0.0,63,0.00,,SKC,0.00,VWS V13.01,2013-01-23 08:42:00,
2013-01-23 00:48:00,36.3,25.0,30.02,ENE,75,0.0,0.0,63,0.00,,SKC,0.00,VWS V13.01,2013-01-23 08:48:00,
2013-01-23 00:54:00,36.3,25.0,30.02,ENE,75,0.0,0.0,63,0.00,,SKC,0.00,VWS V13.01,2013-01-23 08:54:00,
2013-01-23 01:00:00,36.3,25.0,30.02,ENE,74,0.0,0.0,63,0.00,,SKC,0.00,VWS V13.01,2013-01-23 09:00:00,
2013-01-23 01:06:00,36.3,25.0,30.02,ENE,75,0.0,0.0,63,0.00,,SKC,0.00,VWS V13.01,2013-01-23 09:06:00,
2013-01-23 01:12:00,36.3,25.0,30.02,ENE,75,0.0,0.0,63,0.00,,SKC,0.00,VWS V13.01,2013-01-23 09:12:00,
2013-01-23 01:19:00,36.3,25.0,30.02,ENE,75,0.0,0.0,63,0.00,,SKC,0.00,VWS V13.01,2013-01-23 09:19:00,
2013-01-23 01:25:00,36.5,25.1,30.02,ENE,75,0.0,0.0,63,0.00,,SKC,0.00,VWS V13.01,2013-01-23 09:25:00,
2013-01-23 01:33:00,36.7,25.3,30.02,ENE,75,0.0,0.0,63,0.00,,SKC,0.00,VWS V13.01,2013-01-23 09:33:00,
2013-01-23 01:39:00,36.9,25.5,30.02,ENE,75,0.0,0.0,63,0.00,,SKC,0.00,VWS V13.01,2013-01-23 09:39:00,
2013-01-23 01:46:00,37.0,25.6,30.02,ENE,73,0.0,0.0,63,0.00,,SKC,0.00,VWS V13.01,2013-01-23 09:46:00,
2013-01-23 01:52:00,37.0,25.6,30.02,ENE,75,0.0,0.0,63,0.00,,SKC,0.00,VWS V13.01,2013-01-23 09:52:00,
2013-01-23 01:58:00,37.0,25.6,30.02,ENE,75,0.0,0.0,63,0.00,,SKC,0.00,VWS V13.01,2013-01-23 09:58:00,
2013-01-23 02:04:00,37.0,25.6,30.02,ENE,75,0.0,0.0,63,0.00,,SKC,0.00,VWS V13.01,2013-01-23 10:04:00,
2013-01-23 02:10:00,37.0,24.8,30.02,ENE,75,0.0,0.0,61,0.00,,SKC,0.00,VWS V13.01,2013-01-23 10:10:00,
2013-01-23 02:16:00,37.0,24.8,30.02,ENE,75,0.0,0.0,61,0.00,,SKC,0.00,VWS V13.01,2013-01-23 10:16:00,
2013-01-23 02:22:00,37.0,24.8,30.02,ENE,75,0.0,0.0,61,0.00,,SKC,0.00,VWS V13.01,2013-01-23 10:22:00,
2013-01-23 02:28:00,37.0,24.8,30.02,ENE,75,0.0,0.0,61,0.00,,SKC,0.00,VWS V13.01,2013-01-23 10:28:00,
2013-01-23 02:35:00,36.9,24.6,30.02,ENE,75,0.0,0.0,61,0.00,,SKC,0.00,VWS V13.01,2013-01-23 10:35:00,
2013-01-23 02:40:00,36.9,24.6,30.02,ENE,75,0.0,0.0,61,0.00,,SKC,0.00,VWS V13.01,2013-01-23 10:40:00,
2013-01-23 02:45:00,36.9,24.6,30.02,ENE,75,0.0,0.0,61,0.00,,SKC,0.00,VWS V13.01,2013-01-23 10:45:00,
2013-01-23 02:54:00,36.7,24.5,30.02,ENE,75,0.0,0.0,61,0.00,,SKC,0.00,VWS V13.01,2013-01-23 10:54:00,
2013-01-23 03:00:00,36.7,24.5,30.02,ENE,75,0.0,0.0,61,0.00,,SKC,0.00,VWS V13.01,2013-01-23 11:00:00,
2013-01-23 03:06:00,36.9,24.6,30.02,ENE,75,0.0,0.0,61,0.00,,SKC,0.00,VWS V13.01,2013-01-23 11:06:00,
2013-01-23 03:12:00,36.7,24.5,30.02,ENE,75,0.0,0.0,61,0.00,,SKC,0.00,VWS V13.01,2013-01-23 11:12:00,
2013-01-23 03:19:00,36.9,24.6,30.02,ENE,75,0.0,0.0,61,0.00,,SKC,0.00,VWS V13.01,2013-01-23 11:19:00,
2013-01-23 03:25:00,37.0,24.8,30.02,ENE,75,0.0,0.0,61,0.00,,SKC,0.00,VWS V13.01,2013-01-23 11:25:00,
2013-01-23 03:30:00,37.2,25.0,30.02,ENE,75,0.0,0.0,61,0.00,,SKC,0.00,VWS V13.01,2013-01-23 11:30:00,
2013-01-23 03:35:00,37.4,25.2,30.02,ENE,75,0.0,0.0,61,0.00,,SKC,0.00,VWS V13.01,2013-01-23 11:35:00,
2013-01-23 03:44:00,37.6,25.3,30.02,ENE,75,0.0,0.0,61,0.00,,SKC,0.00,VWS V13.01,2013-01-23 11:44:00,
2013-01-23 03:50:00,37.8,25.5,30.02,ENE,75,0.0,0.0,61,0.00,,SKC,0.00,VWS V13.01,2013-01-23 11:50:00,
2013-01-23 03:56:00,38.1,25.8,30.02,ENE,75,0.0,0.0,61,0.00,,SKC,0.00,VWS V13.01,2013-01-23 11:56:00,
2013-01-23 04:02:00,38.1,25.8,29.99,ENE,75,0.0,0.0,61,0.00,,SKC,0.00,VWS V13.01,2013-01-23 12:02:00,
2013-01-23 04:08:00,38.3,26.0,29.99,ENE,75,0.0,0.0,61,0.00,,SKC,0.00,VWS V13.01,2013-01-23 12:08:00,
2013-01-23 04:14:00,38.5,26.2,29.99,ENE,74,0.0,0.0,61,0.00,,SKC,0.00,VWS V13.01,2013-01-23 12:14:00,
2013-01-23 04:20:00,38.5,26.2,29.99,ENE,75,0.0,0.0,61,0.00,,SKC,0.00,VWS V13.01,2013-01-23 12:20:00,
2013-01-23 04:26:00,38.5,26.2,29.99,ENE,75,0.0,0.0,61,0.00,,SKC,0.00,VWS V13.01,2013-01-23 12:26:00,
2013-01-23 04:32:00,38.5,26.2,29.99,ENE,75,0.0,0.0,61,0.00,,SKC,0.00,VWS V13.01,2013-01-23 12:32:00,
2013-01-23 04:38:00,38.7,26.4,29.99,ENE,74,0.0,0.0,61,0.00,,SKC,0.00,VWS V13.01,2013-01-23 12:38:00,
2013-01-23 04:44:00,38.7,25.5,29.99,ENE,75,0.0,0.0,59,0.00,,SKC,0.00,VWS V13.01,2013-01-23 12:44:00,
2013-01-23 04:50:00,38.5,25.3,29.99,ENE,75,0.0,0.0,59,0.00,,SKC,0.00,VWS V13.01,2013-01-23 12:50:00,
2013-01-23 04:57:00,38.7,25.5,29.99,ENE,75,0.0,0.0,59,0.00,,SKC,0.00,VWS V13.01,2013-01-23 12:57:00,
2013-01-23 05:03:00,38.7,25.5,29.99,ENE,75,0.0,0.0,59,0.00,,SKC,0.00,VWS V13.01,2013-01-23 13:03:00,
2013-01-23 05:09:00,38.8,25.7,29.99,ENE,75,0.0,0.0,59,0.00,,SKC,0.00,VWS V13.01,2013-01-23 13:09:00,
2013-01-23 05:15:00,39.0,25.8,29.99,ENE,75,0.0,0.0,59,0.00,,SKC,0.00,VWS V13.01,2013-01-23 13:15:00,
2013-01-23 05:21:00,39.0,25.8,29.99,ENE,75,0.0,0.0,59,0.00,,SKC,0.00,VWS V13.01,2013-01-23 13:21:00,
2013-01-23 05:27:00,39.0,25.8,29.99,ENE,75,0.0,0.0,59,0.00,,SKC,0.00,VWS V13.01,2013-01-23 13:27:00,
2013-01-23 05:33:00,39.0,25.8,29.96,ENE,75,0.0,0.0,59,0.00,,SKC,0.00,VWS V13.01,2013-01-23 13:33:00,
2013-01-23 05:39:00,39.0,25.8,29.96,ENE,74,0.0,0.0,59,0.00,,SKC,0.00,VWS V13.01,2013-01-23 13:39:00,
2013-01-23 05:45:00,39.2,26.0,29.96,ENE,75,0.0,0.0,59,0.00,,SKC,0.00,VWS V13.01,2013-01-23 13:45:00,
2013-01-23 05:51:00,39.4,26.2,29.99,ENE,75,0.0,0.0,59,0.00,,SKC,0.00,VWS V13.01,2013-01-23 13:51:00,
2013-01-23 05:58:00,39.4,26.2,29.99,ENE,75,0.0,0.0,59,0.00,,SKC,0.00,VWS V13.01,2013-01-23 13:58:00,
2013-01-23 06:04:00,39.4,26.2,29.99,ENE,75,0.0,0.0,59,0.00,,SKC,0.00,VWS V13.01,2013-01-23 14:04:00,
2013-01-23 06:10:00,39.4,26.2,29.99,ENE,75,0.0,0.0,59,0.00,,SKC,0.00,VWS V13.01,2013-01-23 14:10:00,
2013-01-23 06:16:00,39.4,26.2,29.99,ENE,75,0.0,0.0,59,0.00,,SKC,0.00,VWS V13.01,2013-01-23 14:16:00,
2013-01-23 06:22:00,39.4,26.2,29.99,NE,56,0.0,0.0,59,0.00,,SKC,0.00,VWS V13.01,2013-01-23 14:22:00,
2013-01-23 06:28:00,39.4,26.2,29.99,NE,56,0.0,0.0,59,0.00,,SKC,0.00,VWS V13.01,2013-01-23 14:28:00,
2013-01-23 06:34:00,39.4,26.2,29.96,NE,56,0.0,0.0,59,0.00,,SKC,0.00,VWS V13.01,2013-01-23 14:34:00,
2013-01-23 06:40:00,39.4,26.2,29.96,NE,56,0.0,0.0,59,0.00,,SKC,0.00,VWS V13.01,2013-01-23 14:40:00,
2013-01-23 06:46:00,39.4,26.2,29.96,NE,56,0.0,0.0,59,0.00,,SKC,0.00,VWS V13.01,2013-01-23 14:46:00,
2013-01-23 06:52:00,39.4,26.2,29.96,NE,56,0.0,0.0,59,0.00,,SKC,0.00,VWS V13.01,2013-01-23 14:52:00,
2013-01-23 06:58:00,39.4,26.2,29.96,NE,56,0.0,0.0,59,0.00,,SKC,0.00,VWS V13.01,2013-01-23 14:58:00,
2013-01-23 07:05:00,39.4,26.2,29.96,NE,56,0.0,0.0,59,0.00,,SKC,0.00,VWS V13.01,2013-01-23 15:05:00,
2013-01-23 07:10:00,39.4,26.2,29.96,NE,56,0.0,0.0,59,0.00,,SKC,0.00,VWS V13.01,2013-01-23 15:10:00,
2013-01-23 07:15:00,39.4,26.2,29.96,NE,56,0.0,0.0,59,0.00,,SKC,0.00,VWS V13.01,2013-01-23 15:15:00,
2013-01-23 07:21:00,39.4,26.2,29.99,NE,35,0.0,0.0,59,0.00,,SKC,0.00,VWS V13.01,2013-01-23 15:21:00,
2013-01-23 07:27:00,39.4,26.2,29.99,NE,34,0.0,0.0,59,0.00,,SKC,0.00,VWS V13.01,2013-01-23 15:27:00,
2013-01-23 07:33:00,39.4,26.2,29.99,NE,35,0.0,0.0,59,0.00,,SKC,0.00,VWS V13.01,2013-01-23 15:33:00,
2013-01-23 07:39:00,39.4,26.2,29.99,NE,35,0.0,0.0,59,0.00,,SKC,0.00,VWS V13.01,2013-01-23 15:39:00,
2013-01-23 07:45:00,39.4,26.2,29.99,NE,35,0.0,0.0,59,0.00,,SKC,0.00,VWS V13.01,2013-01-23 15:45:00,
2013-01-23 07:51:00,39.4,26.2,29.99,NE,35,0.0,0.0,59,0.00,,SKC,0.00,VWS V13.01,2013-01-23 15:51:00,
2013-01-23 07:57:00,39.4,26.2,29.99,NE,35,0.0,0.0,59,0.00,,SKC,0.00,VWS V13.01,2013-01-23 15:57:00,
2013-01-23 08:03:00,39.4,26.2,29.99,ENE,58,0.0,0.0,59,0.00,,SKC,0.00,VWS V13.01,2013-01-23 16:03:00,
2013-01-23 08:09:00,39.4,26.2,29.99,ENE,58,0.0,0.0,59,0.00,,SKC,0.00,VWS V13.01,2013-01-23 16:09:00,
2013-01-23 08:15:00,39.4,26.2,29.99,ENE,58,0.0,0.0,59,0.00,,SKC,0.00,VWS V13.01,2013-01-23 16:15:00,
2013-01-23 08:21:00,39.4,26.2,29.99,ENE,58,0.0,0.0,59,0.00,,SKC,0.00,VWS V13.01,2013-01-23 16:21:00,
2013-01-23 08:27:00,39.4,26.2,29.99,ENE,58,0.0,0.0,59,0.00,,SKC,0.00,VWS V13.01,2013-01-23 16:27:00,
2013-01-23 08:33:00,39.4,26.2,29.99,ENE,58,0.0,0.0,59,0.00,,SKC,0.00,VWS V13.01,2013-01-23 16:33:00,
2013-01-23 08:40:00,39.4,26.2,29.99,ENE,58,0.0,0.0,59,0.00,,SKC,0.00,VWS V13.01,2013-01-23 16:40:00,
2013-01-23 08:46:00,39.4,26.2,29.99,ENE,58,0.0,0.0,59,0.00,,SKC,0.00,VWS V13.01,2013-01-23 16:46:00,
2013-01-23 08:52:00,39.4,26.2,29.99,ENE,58,0.0,0.0,59,0.00,,SKC,0.00,VWS V13.01,2013-01-23 16:52:00,
2013-01-23 08:58:00,39.4,26.2,29.99,ENE,58,0.0,0.0,59,0.00,,SKC,0.00,VWS V13.01,2013-01-23 16:58:00,
2013-01-23 09:04:00,39.4,26.2,29.99,ENE,58,0.0,0.0,59,0.00,,SKC,0.00,VWS V13.01,2013-01-23 17:04:00,
2013-01-23 09:10:00,39.4,26.2,29.99,ENE,58,0.0,0.0,59,0.00,,SKC,0.00,VWS V13.01,2013-01-23 17:10:00,
2013-01-23 09:16:00,39.4,26.2,29.99,ENE,58,0.0,0.0,59,0.00,,SKC,0.00,VWS V13.01,2013-01-23 17:16:00,
2013-01-23 09:22:00,39.4,26.2,29.99,ENE,58,0.0,0.0,59,0.00,,SKC,0.00,VWS V13.01,2013-01-23 17:22:00,
2013-01-23 09:28:00,39.4,26.2,29.99,ENE,58,0.0,0.0,59,0.00,,SKC,0.00,VWS V13.01,2013-01-23 17:28:00,
2013-01-23 09:34:00,39.4,26.2,30.02,ENE,58,0.0,0.0,59,0.00,,SKC,0.00,VWS V13.01,2013-01-23 17:34:00,
2013-01-23 09:40:00,39.4,26.2,30.02,ENE,58,0.0,0.0,59,0.00,,SKC,0.00,VWS V13.01,2013-01-23 17:40:00,
2013-01-23 09:46:00,39.4,26.2,30.02,ENE,58,0.0,0.0,59,0.00,,SKC,0.00,VWS V13.01,2013-01-23 17:46:00,
2013-01-23 09:53:00,39.4,26.2,30.02,ENE,58,0.0,0.0,59,0.00,,SKC,0.00,VWS V13.01,2013-01-23 17:53:00,
2013-01-23 09:59:00,39.4,26.2,30.02,ENE,58,0.0,0.0,59,0.00,,SKC,0.00,VWS V13.01,2013-01-23 17:59:00,
2013-01-23 10:05:00,39.4,26.2,30.02,ENE,58,0.0,0.0,59,0.00,,SKC,0.00,VWS V13.01,2013-01-23 18:05:00,
2013-01-23 10:11:00,39.4,26.2,30.02,ENE,58,0.0,0.0,59,0.00,,SKC,0.00,VWS V13.01,2013-01-23 18:11:00,
2013-01-23 10:17:00,39.4,26.2,30.02,NW,307,0.0,0.0,59,0.00,,SKC,0.00,VWS V13.01,2013-01-23 18:17:00,
2013-01-23 10:23:00,39.4,26.2,30.02,NW,307,0.0,0.0,59,0.00,,SKC,0.00,VWS V13.01,2013-01-23 18:23:00,
2013-01-23 10:29:00,39.4,26.2,30.02,NW,324,0.0,0.0,59,0.00,,SKC,0.00,VWS V13.01,2013-01-23 18:29:00,
2013-01-23 10:35:00,39.4,26.2,30.02,SW,226,0.0,0.0,59,0.00,,SKC,0.00,VWS V13.01,2013-01-23 18:35:00,
2013-01-23 10:41:00,39.4,26.2,30.02,West,260,0.0,0.0,59,0.00,,SKC,0.00,VWS V13.01,2013-01-23 18:41:00,
2013-01-23 10:47:00,52.0,27.0,30.02,West,260,0.0,0.0,38,0.00,,SKC,0.00,VWS V13.01,2013-01-23 18:47:00,
2013-01-23 10:53:00,52.2,27.2,30.02,West,260,0.0,0.0,38,0.00,,SKC,0.00,VWS V13.01,2013-01-23 18:53:00,
2013-01-23 10:59:00,52.5,27.5,30.02,West,264,0.0,0.0,38,0.00,,SKC,0.00,VWS V13.01,2013-01-23 18:59:00,
2013-01-23 11:05:00,53.1,28.0,30.02,West,264,0.0,0.0,38,0.00,,SKC,0.00,VWS V13.01,2013-01-23 19:05:00,
2013-01-23 11:11:00,53.6,28.5,30.02,West,264,0.0,0.0,38,0.00,,SKC,0.00,VWS V13.01,2013-01-23 19:11:00,
2013-01-23 11:18:00,53.8,28.7,30.02,SW,231,0.0,0.0,38,0.00,,SKC,0.00,VWS V13.01,2013-01-23 19:18:00,
2013-01-23 11:24:00,54.3,29.1,30.02,SW,231,0.0,0.0,38,0.00,,SKC,0.00,VWS V13.01,2013-01-23 19:24:00,
2013-01-23 11:30:00,54.9,28.2,30.02,WSW,240,0.0,0.0,36,0.00,,SKC,0.00,VWS V13.01,2013-01-23 19:30:00,
2013-01-23 11:36:00,55.2,25.5,30.02,WSW,240,0.0,0.0,31,0.00,,SKC,0.00,VWS V13.01,2013-01-23 19:36:00,
2013-01-23 11:42:00,55.6,25.8,30.02,WSW,239,0.0,0.0,31,0.00,,SKC,0.00,VWS V13.01,2013-01-23 19:42:00,
2013-01-23 11:48:00,55.8,26.0,30.02,WSW,239,0.0,0.0,31,0.00,,SKC,0.00,VWS V13.01,2013-01-23 19:48:00,
2013-01-23 11:54:00,55.9,26.1,30.02,WSW,239,0.0,0.0,31,0.00,,SKC,0.00,VWS V13.01,2013-01-23 19:54:00,
2013-01-23 12:00:00,55.9,26.1,30.02,WSW,239,0.0,0.0,31,0.00,,SKC,0.00,VWS V13.01,2013-01-23 20:00:00,
2013-01-23 12:06:00,55.9,26.1,30.02,WSW,239,0.0,0.0,31,0.00,,SKC,0.00,VWS V13.01,2013-01-23 20:06:00,
2013-01-23 12:12:00,55.9,26.1,30.02,WSW,239,0.0,0.0,31,0.00,,SKC,0.00,VWS V13.01,2013-01-23 20:12:00,
2013-01-23 12:18:00,55.8,26.0,30.02,WSW,239,0.0,0.0,31,0.00,,SKC,0.00,VWS V13.01,2013-01-23 20:18:00,
2013-01-23 12:24:00,55.9,26.1,30.02,WSW,239,0.0,0.0,31,0.00,,SKC,0.00,VWS V13.01,2013-01-23 20:24:00,
2013-01-23 12:30:00,55.9,26.1,30.02,WSW,239,0.0,0.0,31,0.00,,SKC,0.00,VWS V13.01,2013-01-23 20:30:00,
2013-01-23 12:36:00,56.3,24.8,30.02,West,269,0.0,0.0,29,0.00,,SKC,0.00,VWS V13.01,2013-01-23 20:36:00,
2013-01-23 12:43:00,56.8,25.3,30.02,West,269,0.0,0.0,29,0.00,,SKC,0.00,VWS V13.01,2013-01-23 20:43:00,
2013-01-23 12:49:00,57.2,25.6,30.02,NNW,343,0.0,0.0,29,0.00,,SKC,0.00,VWS V13.01,2013-01-23 20:49:00,
2013-01-23 12:55:00,57.6,25.9,30.02,West,263,0.0,0.0,29,0.00,,SKC,0.00,VWS V13.01,2013-01-23 20:55:00,
2013-01-23 13:01:00,58.1,26.4,30.02,SW,218,0.0,0.0,29,0.00,,SKC,0.00,VWS V13.01,2013-01-23 21:01:00,
2013-01-23 13:07:00,58.6,26.8,30.02,WSW,253,0.0,0.0,29,0.00,,SKC,0.00,VWS V13.01,2013-01-23 21:07:00,
2013-01-23 13:13:00,59.4,27.5,30.02,West,266,0.0,0.0,29,0.00,,SKC,0.00,VWS V13.01,2013-01-23 21:13:00,
2013-01-23 13:19:00,59.9,27.9,30.02,West,279,0.0,0.0,29,0.00,,SKC,0.00,VWS V13.01,2013-01-23 21:19:00,
2013-01-23 13:26:00,60.3,28.2,30.02,SW,231,0.0,0.0,29,0.00,,SKC,0.00,VWS V13.01,2013-01-23 21:26:00,
2013-01-23 13:32:00,60.3,28.2,30.02,WSW,258,0.0,0.0,29,0.00,,SKC,0.00,VWS V13.01,2013-01-23 21:32:00,
2013-01-23 13:38:00,59.9,27.9,30.02,WSW,255,0.0,0.0,29,0.00,,SKC,0.00,VWS V13.01,2013-01-23 21:38:00,
2013-01-23 13:44:00,59.7,27.8,30.02,West,270,0.0,0.0,29,0.00,,SKC,0.00,VWS V13.01,2013-01-23 21:44:00,
2013-01-23 13:50:00,59.4,27.5,30.02,NE,40,0.0,0.0,29,0.00,,SKC,0.00,VWS V13.01,2013-01-23 21:50:00,
2013-01-23 13:56:00,59.4,27.5,30.02,West,272,0.0,0.0,29,0.00,,SKC,0.00,VWS V13.01,2013-01-23 21:56:00,
2013-01-23 14:02:00,59.2,27.3,29.99,WNW,296,0.0,0.0,29,0.00,,SKC,0.00,VWS V13.01,2013-01-23 22:02:00,
2013-01-23 14:08:00,59.2,27.3,29.99,West,280,0.0,0.0,29,0.00,,SKC,0.00,VWS V13.01,2013-01-23 22:08:00,
2013-01-23 14:14:00,59.2,27.3,29.99,West,281,0.0,0.0,29,0.00,,SKC,0.00,VWS V13.01,2013-01-23 22:14:00,
2013-01-23 14:20:00,58.8,27.0,29.99,West,281,0.0,0.0,29,0.00,,SKC,0.00,VWS V13.01,2013-01-23 22:20:00,
2013-01-23 14:26:00,58.3,26.5,29.99,West,281,0.0,0.0,29,0.00,,SKC,0.00,VWS V13.01,2013-01-23 22:26:00,
2013-01-23 14:32:00,58.1,26.4,30.02,West,281,0.0,0.0,29,0.00,,SKC,0.00,VWS V13.01,2013-01-23 22:32:00,
2013-01-23 14:39:00,58.1,26.4,30.02,West,281,0.0,0.0,29,0.00,,SKC,0.00,VWS V13.01,2013-01-23 22:39:00,
2013-01-23 14:45:00,58.1,26.4,30.02,West,281,0.0,0.0,29,0.00,,SKC,0.00,VWS V13.01,2013-01-23 22:45:00,
2013-01-23 14:51:00,58.1,26.4,30.02,West,281,0.0,0.0,29,0.00,,SKC,0.00,VWS V13.01,2013-01-23 22:51:00,
2013-01-23 14:57:00,58.1,26.4,30.02,West,280,0.0,0.0,29,0.00,,SKC,0.00,VWS V13.01,2013-01-23 22:57:00,
2013-01-23 15:03:00,57.9,26.2,30.02,West,279,0.0,0.0,29,0.00,,SKC,0.00,VWS V13.01,2013-01-23 23:03:00,
2013-01-23 15:09:00,57.7,26.0,30.02,WNW,282,0.0,0.0,29,0.00,,SKC,0.00,VWS V13.01,2013-01-23 23:09:00,
2013-01-23 15:15:00,57.6,25.9,30.02,West,262,0.0,0.0,29,0.00,,SKC,0.00,VWS V13.01,2013-01-23 23:15:00,
2013-01-23 15:21:00,57.2,25.6,30.02,West,261,0.0,0.0,29,0.00,,SKC,0.00,VWS V13.01,2013-01-23 23:21:00,
2013-01-23 15:27:00,56.8,25.3,30.02,West,262,0.0,0.0,29,0.00,,SKC,0.00,VWS V13.01,2013-01-23 23:27:00,
2013-01-23 15:33:00,56.7,25.1,30.02,West,262,0.0,0.0,29,0.00,,SKC,0.00,VWS V13.01,2013-01-23 23:33:00,
2013-01-23 15:39:00,56.5,25.0,30.02,West,261,0.0,0.0,29,0.00,,SKC,0.00,VWS V13.01,2013-01-23 23:39:00,
2013-01-23 15:46:00,56.1,26.3,30.02,WSW,257,0.0,0.0,31,0.00,,SKC,0.00,VWS V13.01,2013-01-23 23:46:00,
2013-01-23 15:52:00,55.8,26.0,30.02,WSW,250,0.0,0.0,31,0.00,,SKC,0.00,VWS V13.01,2013-01-23 23:52:00,
2013-01-23 15:58:00,55.6,25.8,30.02,West,279,0.0,0.0,31,0.00,,SKC,0.00,VWS V13.01,2013-01-23 23:58:00,
2013-01-23 16:04:00,55.4,25.7,30.02,West,259,0.0,0.0,31,0.00,,SKC,0.00,VWS V13.01,2013-01-24 00:04:00,
2013-01-23 16:10:00,55.0,25.4,30.02,West,261,0.0,0.0,31,0.00,,SKC,0.00,VWS V13.01,2013-01-24 00:10:00,
2013-01-23 16:16:00,54.7,25.0,30.02,SW,230,0.0,0.0,31,0.00,,SKC,0.00,VWS V13.01,2013-01-24 00:16:00,
2013-01-23 16:22:00,54.3,24.7,30.05,SSW,201,0.0,0.0,31,0.00,,SKC,0.00,VWS V13.01,2013-01-24 00:22:00,
2013-01-23 16:28:00,54.1,24.6,30.05,SSW,201,0.0,0.0,31,0.00,,SKC,0.00,VWS V13.01,2013-01-24 00:28:00,
2013-01-23 16:34:00,53.8,24.3,30.05,West,268,0.0,0.0,31,0.00,,SKC,0.00,VWS V13.01,2013-01-24 00:34:00,
2013-01-23 16:40:00,53.4,23.9,30.05,West,277,0.0,0.0,31,0.00,,SKC,0.00,VWS V13.01,2013-01-24 00:40:00,
2013-01-23 16:47:00,52.7,24.9,30.05,West,276,0.0,0.0,34,0.00,,SKC,0.00,VWS V13.01,2013-01-24 00:47:00,
2013-01-23 16:53:00,52.0,24.2,30.05,West,276,0.0,0.0,34,0.00,,SKC,0.00,VWS V13.01,2013-01-24 00:53:00,
2013-01-23 16:59:00,50.9,23.3,30.05,West,276,0.0,0.0,34,0.00,,SKC,0.00,VWS V13.01,2013-01-24 00:59:00,
2013-01-23 17:05:00,50.0,22.5,30.05,West,276,0.0,0.0,34,0.00,,SKC,0.00,VWS V13.01,2013-01-24 01:05:00,
2013-01-23 17:11:00,48.9,25.6,30.05,West,276,0.0,0.0,40,0.00,,SKC,0.00,VWS V13.01,2013-01-24 01:11:00,
2013-01-23 17:17:00,48.2,25.0,30.08,West,276,0.0,0.0,40,0.00,,SKC,0.00,VWS V13.01,2013-01-24 01:17:00,
2013-01-23 17:23:00,47.5,26.7,30.08,NNE,25,0.0,0.0,44,0.00,,SKC,0.00,VWS V13.01,2013-01-24 01:23:00,
2013-01-23 17:29:00,46.9,27.4,30.08,NNE,25,0.0,0.0,46,0.00,,SKC,0.00,VWS V13.01,2013-01-24 01:29:00,
2013-01-23 17:35:00,46.6,27.0,30.05,NNE,25,0.0,0.0,46,0.00,,SKC,0.00,VWS V13.01,2013-01-24 01:35:00,
2013-01-23 17:41:00,46.2,26.7,30.05,NNE,25,0.0,0.0,46,0.00,,SKC,0.00,VWS V13.01,2013-01-24 01:41:00,
2013-01-23 17:48:00,46.0,28.6,30.08,NNE,25,0.0,0.0,50,0.00,,SKC,0.00,VWS V13.01,2013-01-24 01:48:00,
2013-01-23 17:54:00,45.9,31.4,30.08,NNE,25,0.0,0.0,57,0.00,,SKC,0.00,VWS V13.01,2013-01-24 01:54:00,
2013-01-23 18:00:00,45.9,32.3,30.08,NNE,25,0.0,0.0,59,0.00,,SKC,0.00,VWS V13.01,2013-01-24 02:00:00,
2013-01-23 18:06:00,45.7,32.1,30.08,NNE,25,0.0,0.0,59,0.00,,SKC,0.00,VWS V13.01,2013-01-24 02:06:00,
2013-01-23 18:12:00,45.7,32.1,30.08,NNE,25,0.0,0.0,59,0.00,,SKC,0.00,VWS V13.01,2013-01-24 02:12:00,
2013-01-23 18:18:00,45.9,33.2,30.08,NNE,25,0.0,0.0,61,0.00,,SKC,0.00,VWS V13.01,2013-01-24 02:18:00,
2013-01-23 18:24:00,45.9,33.2,30.08,NNE,25,0.0,0.0,61,0.00,,SKC,0.00,VWS V13.01,2013-01-24 02:24:00,
2013-01-23 18:30:00,45.9,33.2,30.08,NNE,25,0.0,0.0,61,0.00,,SKC,0.00,VWS V13.01,2013-01-24 02:30:00,
2013-01-23 18:35:00,45.9,34.0,30.08,NNE,25,0.0,0.0,63,0.00,,SKC,0.00,VWS V13.01,2013-01-24 02:35:00,
2013-01-23 18:41:00,45.9,33.2,30.08,NNE,25,0.0,0.0,61,0.00,,SKC,0.00,VWS V13.01,2013-01-24 02:41:00,
2013-01-23 18:47:00,45.9,34.0,30.08,NNE,25,0.0,0.0,63,0.00,,SKC,0.00,VWS V13.01,2013-01-24 02:47:00,
2013-01-23 18:53:00,45.9,35.6,30.08,NNE,25,0.0,0.0,67,0.00,,SKC,0.00,VWS V13.01,2013-01-24 02:53:00,
2013-01-23 18:59:00,45.9,36.4,30.08,NNE,25,0.0,0.0,69,0.00,,SKC,0.00,VWS V13.01,2013-01-24 02:59:00,
2013-01-23 19:05:00,45.9,36.4,30.08,NNE,25,0.0,0.0,69,0.00,,SKC,0.00,VWS V13.01,2013-01-24 03:05:00,
2013-01-23 19:11:00,45.9,37.9,30.08,NNE,25,0.0,0.0,74,0.00,,SKC,0.00,VWS V13.01,2013-01-24 03:11:00,
2013-01-23 19:17:00,45.9,37.2,30.08,NNE,25,0.0,0.0,71,0.00,,SKC,0.00,VWS V13.01,2013-01-24 03:17:00,
2013-01-23 19:23:00,45.7,38.4,30.08,NNE,25,0.0,0.0,76,0.00,,SKC,0.00,VWS V13.01,2013-01-24 03:23:00,
2013-01-23 19:30:00,45.7,39.1,30.08,NNE,25,0.0,0.0,78,0.00,,SKC,0.00,VWS V13.01,2013-01-24 03:30:00,
2013-01-23 19:36:00,45.7,39.1,30.08,NNE,25,0.0,0.0,78,0.00,,SKC,0.00,VWS V13.01,2013-01-24 03:36:00,
2013-01-23 19:42:00,45.9,39.3,30.08,NNE,25,0.0,0.0,78,0.00,,SKC,0.00,VWS V13.01,2013-01-24 03:42:00,
2013-01-23 19:48:00,45.7,38.4,30.08,NNE,25,0.0,0.0,76,0.00,,SKC,0.00,VWS V13.01,2013-01-24 03:48:00,
2013-01-23 19:54:00,45.7,39.1,30.08,NNE,25,0.0,0.0,78,0.04,,SKC,0.04,VWS V13.01,2013-01-24 03:54:00,
2013-01-23 20:00:00,45.9,39.3,30.08,NNE,25,0.0,0.0,78,0.04,,SKC,0.04,VWS V13.01,2013-01-24 04:00:00,
2013-01-23 20:07:00,45.9,39.3,30.08,NNE,25,0.0,0.0,78,0.04,,SKC,0.04,VWS V13.01,2013-01-24 04:07:00,
2013-01-23 20:13:00,45.9,39.3,30.08,NNE,25,0.0,0.0,78,0.04,,SKC,0.04,VWS V13.01,2013-01-24 04:13:00,
2013-01-23 20:19:00,45.9,39.3,30.08,NNE,25,0.0,0.0,78,0.04,,SKC,0.04,VWS V13.01,2013-01-24 04:19:00,
2013-01-23 20:25:00,45.9,40.0,30.08,NNE,25,0.0,0.0,80,0.04,,SKC,0.04,VWS V13.01,2013-01-24 04:25:00,
2013-01-23 20:32:00,45.9,40.0,30.08,NNE,25,0.0,0.0,80,0.04,,SKC,0.04,VWS V13.01,2013-01-24 04:32:00,
2013-01-23 20:38:00,45.9,40.0,30.08,NNE,25,0.0,0.0,80,0.04,,SKC,0.04,VWS V13.01,2013-01-24 04:38:00,
2013-01-23 20:44:00,45.9,40.0,30.08,NNE,25,0.0,0.0,80,0.04,,SKC,0.04,VWS V13.01,2013-01-24 04:44:00,
2013-01-23 20:50:00,45.9,40.0,30.08,NNE,25,0.0,0.0,80,0.04,,SKC,0.04,VWS V13.01,2013-01-24 04:50:00,
2013-01-23 20:56:00,45.7,39.8,30.08,NNE,25,0.0,0.0,80,0.04,,SKC,0.04,VWS V13.01,2013-01-24 04:56:00,
2013-01-23 21:03:00,45.7,39.8,30.08,NNE,25,0.0,0.0,80,0.00,,SKC,0.04,VWS V13.01,2013-01-24 05:03:00,
2013-01-23 21:05:00,45.7,39.8,30.08,NNE,25,0.0,0.0,80,0.00,,SKC,0.04,VWS V13.01,2013-01-24 05:05:00,
2013-01-23 21:07:00,45.7,39.8,30.08,NNE,25,0.0,0.0,80,0.00,,SKC,0.04,VWS V13.01,2013-01-24 05:07:00,
2013-01-23 21:09:00,45.7,39.8,30.08,NNE,25,0.0,0.0,80,0.00,,SKC,0.04,VWS V13.01,2013-01-24 05:09:00,
2013-01-23 21:15:00,45.5,39.6,30.08,NNE,25,0.0,0.0,80,0.00,,SKC,0.04,VWS V13.01,2013-01-24 05:15:00,
2013-01-23 21:21:00,45.5,39.6,30.08,NNE,25,0.0,0.0,80,0.00,,SKC,0.04,VWS V13.01,2013-01-24 05:21:00,
2013-01-23 21:27:00,45.5,39.6,30.08,NNE,25,0.0,0.0,80,0.00,,SKC,0.04,VWS V13.01,2013-01-24 05:27:00,
2013-01-23 21:34:00,45.5,40.3,30.08,NNE,25,0.0,0.0,82,0.00,,SKC,0.04,VWS V13.01,2013-01-24 05:34:00,
2013-01-23 21:40:00,45.7,40.5,30.08,NNE,25,0.0,0.0,82,0.00,,SKC,0.04,VWS V13.01,2013-01-24 05:40:00,
2013-01-23 21:46:00,45.7,40.5,30.08,NNE,25,0.0,0.0,82,0.00,,SKC,0.04,VWS V13.01,2013-01-24 05:46:00,
2013-01-23 21:52:00,45.7,40.5,30.08,NNE,25,0.0,0.0,82,0.00,,SKC,0.04,VWS V13.01,2013-01-24 05:52:00,
2013-01-23 21:58:00,45.5,40.3,30.08,NNE,25,0.0,0.0,82,0.00,,SKC,0.04,VWS V13.01,2013-01-24 05:58:00,
2013-01-23 22:04:00,45.5,40.3,30.08,NNE,25,0.0,0.0,82,0.00,,SKC,0.04,VWS V13.01,2013-01-24 06:04:00,
2013-01-23 22:10:00,45.5,40.3,30.08,NNE,25,0.0,0.0,82,0.00,,SKC,0.04,VWS V13.01,2013-01-24 06:10:00,
2013-01-23 22:16:00,45.5,40.3,30.08,NNE,25,0.0,0.0,82,0.00,,SKC,0.04,VWS V13.01,2013-01-24 06:16:00,
2013-01-23 22:23:00,45.3,40.1,30.08,NNE,25,0.0,0.0,82,0.00,,SKC,0.04,VWS V13.01,2013-01-24 06:23:00,
2013-01-23 22:29:00,45.3,40.1,30.08,NNE,25,0.0,0.0,82,0.00,,SKC,0.04,VWS V13.01,2013-01-24 06:29:00,
2013-01-23 22:35:00,45.3,40.8,30.08,NNE,25,0.0,0.0,84,0.00,,SKC,0.04,VWS V13.01,2013-01-24 06:35:00,
2013-01-23 22:41:00,45.5,41.0,30.08,NNE,25,0.0,0.0,84,0.00,,SKC,0.04,VWS V13.01,2013-01-24 06:41:00,
2013-01-23 22:47:00,45.5,41.0,30.08,NNE,25,0.0,0.0,84,0.00,,SKC,0.04,VWS V13.01,2013-01-24 06:47:00,
2013-01-23 22:53:00,45.5,41.0,30.08,NNE,25,0.0,0.0,84,0.00,,SKC,0.04,VWS V13.01,2013-01-24 06:53:00,
2013-01-23 22:59:00,45.5,41.0,30.08,NNE,25,0.0,0.0,84,0.00,,SKC,0.04,VWS V13.01,2013-01-24 06:59:00,
2013-01-23 23:05:00,45.5,40.3,30.08,NNE,25,0.0,0.0,82,0.00,,SKC,0.04,VWS V13.01,2013-01-24 07:05:00,
2013-01-23 23:11:00,45.5,41.0,30.08,NNE,25,0.0,0.0,84,0.00,,SKC,0.04,VWS V13.01,2013-01-24 07:11:00,
2013-01-23 23:17:00,45.5,41.0,30.08,NNE,25,0.0,0.0,84,0.00,,SKC,0.04,VWS V13.01,2013-01-24 07:17:00,
2013-01-23 23:23:00,45.7,41.1,30.08,NNE,25,0.0,0.0,84,0.00,,SKC,0.04,VWS V13.01,2013-01-24 07:23:00,
2013-01-23 23:29:00,45.7,41.1,30.08,NNE,25,0.0,0.0,84,0.00,,SKC,0.04,VWS V13.01,2013-01-24 07:29:00,
2013-01-23 23:36:00,45.9,41.3,30.08,NNE,25,0.0,0.0,84,0.00,,SKC,0.04,VWS V13.01,2013-01-24 07:36:00,
2013-01-23 23:42:00,45.7,41.1,30.08,NNE,25,0.0,0.0,84,0.00,,SKC,0.04,VWS V13.01,2013-01-24 07:42:00,
2013-01-23 23:48:00,45.5,40.3,30.08,NNE,25,0.0,0.0,82,0.00,,SKC,0.04,VWS V13.01,2013-01-24 07:48:00,
2013-01-23 23:54:00,45.7,41.1,30.08,NNE,25,0.0,0.0,84,0.00,,SKC,0.04,VWS V13.01,2013-01-24 07:54:00,